Regional Weather Roundup
Issued by NWS Charleston, SC

Current Version | Previous Version | Text Only | Print | Product List | Glossary Off
Versions: 1 2 3 4 5 6 7 8 9 10 11 12 13 14 15 16 17 18 19 20 21 22 23 24 25 26 27 28 29 30 31 32 33 34 35 36 37 38 39 40 41 42 43 44 45 46 47 48 49 50
000 ASUS42 KCHS 091712 RWRCHS REGIONAL WEATHER ROUNDUP NATIONAL WEATHER SERVICE CHARLESTON SC 1200 PM EST FRI DEC 09 2016 NOTE: "FAIR" INDICATES FEW OR NO CLOUDS BELOW 12,000 FEET WITH NO SIGNIFICANT WEATHER AND/OR OBSTRUCTIONS TO VISIBILITY. NOT ALL STATIONS ARE QUALITY CONTROLLED. USE DATA WITH CAUTION... ESPECIALLY DEWPOINT OBSERVATIONS. SCZ027-030-031-034>040-042>050-091800- ...SOUTHEAST SOUTH CAROLINA... CITY SKY/WX TMP DP RH WIND PRES REMARKS N CHARLESTON MOSUNNY 49 18 29 N12 30.40F WATERFRONT PRK N/A 45 25 45 N9 30.39F MOUNT PLEASANT NOT AVBL JOHNS ISLAND FAIR 48 19 32 NW9 30.39F PINOPOLIS N/A 41 25 52 N8 30.34F MONCKS CORNER FAIR 43 19 39 N6 30.41F SUMMERVILLE FAIR 45 23 42 NW7 30.42F BEAUFORT MCAS SUNNY 51 20 29 N7 30.40F BEAUFORT ARPT FAIR 46 23 39 N8 30.40F HILTON HEAD IS SUNNY 52 25 35 NW12 30.40F WALTERBORO SUNNY 48 19 32 NW8 30.42S ALLENDALE FAIR 46 19 34 N8 30.41F ...SOUTHERN MIDLANDS AND PEE DEE... CITY SKY/WX TMP DP RH WIND PRES REMARKS GEORGETOWN FAIR 43 21 42 NW8 30.39F KINGSTREE FAIR 43 19 39 NW12 30.42S ORANGEBURG SUNNY 44 18 35 NE7 30.42F BARNWELL NOT AVBL AIKEN FAIR 41 18 38 N5 30.46F MANNING FAIR 43 18 36 NW10G16 30.42F COLUMBIA SUNNY 44 18 35 VRB7 30.43F SUMTER SUNNY 43 16 34 N7 30.41F FLORENCE SUNNY 43 18 36 N14 30.42F MYRTLE BEACH SUNNY 43 18 36 N9G16 30.40F N MYRTLE BEACH SUNNY 43 20 39 NW8 30.37F $$ GAZ063-065-086>088-099>101-113>116-118-119-134>141-150-091800- ...SOUTHEAST GEORGIA... CITY SKY/WX TMP DP RH WIND PRES REMARKS SAVANNAH ARPT MOSUNNY 50 19 29 N6 30.41F HUNTER AAF SUNNY 51 28 41 VRB7 30.37F FORT STEWART SUNNY 50 21 32 N8 30.39F STATESBORO SUNNY 47 23 38 NW3 30.43S SYLVANIA SUNNY N/A N/A N/A N8 30.43F CLAXTON FAIR 49 24 37 NW6 30.42F ...CSRA...CENTRAL AND FAR SOUTHEAST GEORGIA... CITY SKY/WX TMP DP RH WIND PRES REMARKS THOMSON SUNNY 44 23 43 CALM 30.49F AUGUSTA-BUSH SUNNY 47 16 29 N9 30.44F AUGUSTA-DANIEL SUNNY 44 15 31 N6 30.44F SWAINSBORO FAIR 45 19 36 NW5 30.44F VIDALIA SUNNY 46 28 49 N6 30.43F EASTMAN FAIR 47 -2 13 NW3 30.47F HAZLEHURST FAIR 48 22 36 NW5 30.42F ALMA SUNNY 48 23 37 VRB5 30.41F WAYCROSS SUNNY 52 28 38 N8 30.41F JESUP FAIR 50 30 46 NE7 30.41F BAXLEY FAIR 48 30 49 N6 30.41F BRUNSWICK SUNNY 52 30 43 NW10 30.40F SAINT SIMONS SUNNY 52 24 33 N10 30.39F $$ SCZ027-028-034-036>038-045-046-048>050-GAZ119-141-091800- ...LAKE AND SUPPLEMENTAL COASTAL OBSERVATIONS... STATION/POSITION TIME TEMP WIND PRES WAVE SWELL AIR SEA DIR/SP/G HT/PER HT/PER/DIR (UTC) (F) (DEG/KT/KT) (MB) (FT/S) (FT/S/D) WINYAH BAY 1545 42 10/ 6 1030.0 LAKE MURRAY 1620 40 340/ 3/ 7 1030.5 ACE BASIN NERRS 1545 46 360/ 4 1030.0 FORT PULASKI 1648 47 61 350/ 8/ 10 1029.4F SAPELO ISLAND 1600 50 10/ 11 1030.0 $$ ANZ835-935-AMZ111-154-330-350-352-354-370-450-454-472-091800- ...C-MAN AND BUOY OBSERVATIONS... STATION/POSITION TIME TEMP WIND PRES WAVE SWELL AIR SEA DIR/SP/G HT/PER HT/PER/DIR (UTC) (F) (DEG/KT/KT) (MB) (FT/S) (FT/S/D) BUOY 41004 1550 49 73 360/ 17/ 23 1028.3 6/ 6 BUOY 41008 1550 49 63 10/ 16/ 21 1029.3 4/ 6 2/120/ 9 FOLLY BEACH CMAN 1600 45 340/ 9/ 13 1030.3F CAPERS NEARSHORE 1608 44 60 10/ 14/ 17 1029.5F FRIPP NEARSHORE 1608 46 60 10/ 14/ 17 1029.6F STATION/POSITION TIME TEMP WIND PRES WAVE SWELL AIR SEA DIR/SP/G HT/PER HT/PER/DIR (UTC) (F) (DEG/KT/KT) (MB) (FT/S) (FT/S/D) 5E ST. MARYS GA 1630 64 N/A 5/ 5 FRYING PAN BUOY 1650 45 72 350/ 17/ 21 1027.8F 5/ 6 2/ 60/ 9 BUOY 41025 1650 42 75 350/ 19/ 23 1025.8F 5/ 8 3/ 60/14 CAPE LOOKOUT NC 1700 41 320/ 12/ 15 1026.9F BUOY 41002 1650 61 73 350/ 17/ 21 1022.7F 6/ 8 3/ 40/11 BUOY 41010 NOT AVBL ST AUGUSTINE FL 1700 53 65 360/ 20/ 25 1028.6F $$

USA.gov is the U.S. government's official web portal to all federal, state and local government web resources and services.